Alton, IL

2:09 AM CDT on March 25, 2017 (GMT -0500)
Saint Louis Regional

Weather History for KALN - November, 2013

Change the Weather History Date:

Sunday, November 3, 2013

  Actual Average Record
Temperature  
Mean Temperature 42 °F -  
Max Temperature 57 °F 57 °F 80 °F (2003)
Min Temperature 28 °F 41 °F 23 °F (2006)
Degree Days  
Heating Degree Days 22    
Moisture  
Dew Point 32 °F    
Average Humidity 78    
Maximum Humidity 100    
Minimum Humidity 31    
Precipitation  
Precipitation 0.00 in - - ()
Sea Level Pressure  
Sea Level Pressure 30.22 in    
Wind  
Wind Speed 3 mph (SSE)    
Max Wind Speed 14 mph    
Max Gust Speed -    
Visibility 7 miles    
Events Fog    
Averages and records for this station are not official NWS values.
T = Trace of Precipitation, MM = Missing Value Source: NWS Daily Summary

Daily Weather History Graph

Daily Weather History Graph

Search for Another Location

Airport or City:

Trip Planner

Search our weather history database for the weather conditions in past years. The results will help you decide how hot, cold, wet, or windy it might be!

Date:

Astronomy

Nov. 03, 2013 Rise Set
Actual Time 6:29 AM CST 4:57 PM CST
Civil Twilight 6:02 AM CST 5:24 PM CST
Nautical Twilight 5:30 AM CST 5:56 PM CST
Astronomical Twilight 4:59 AM CST 6:27 PM CST
Moon 6:33 AM CST (11/3) 5:12 PM CST (11/3)
Length of Visible Light 11h 22m
Length of Day
10h 27m
New Moon, 0% of the Moon is Illuminated
Nov 3
New Moon
Nov 9
First Quarter
Nov 17
Full
Nov 25
Last Quarter
Dec 2
New

Hourly Weather History & Observations

Time (CST) Temp. Windchill Dew Point Humidity Pressure Visibility Wind Dir Wind Speed Gust Speed Precip Events Conditions
12:15 AM 35.6 °F - 33.8 °F 93% 30.19 in 7.0 mi Calm Calm - N/A   Clear
12:35 AM 35.2 °F - 33.8 °F 94% 30.18 in 10.0 mi Calm Calm - N/A   Clear
12:55 AM 34.3 °F - 33.3 °F 96% 30.19 in 10.0 mi Calm Calm - N/A   Clear
1:15 AM 34.7 °F - 33.4 °F 95% 30.20 in 7.0 mi Calm Calm - N/A   Clear
1:35 AM 32.7 °F - 32.0 °F 97% 30.21 in 7.0 mi Calm Calm - N/A   Clear
1:55 AM 33.4 °F - 32.9 °F 98% 30.21 in 4.0 mi Calm Calm - N/A   Mist
1:15 AM 33.6 °F - 33.3 °F 99% 30.22 in 5.0 mi Calm Calm - N/A   Mist
1:35 AM 32.5 °F - 32.2 °F 99% 30.23 in 7.0 mi Calm Calm - N/A   Unknown
1:55 AM 32.7 °F - 32.5 °F 99% 30.23 in 7.0 mi Calm Calm - N/A   Unknown
2:15 AM 32.4 °F - 32.2 °F 99% 30.23 in 7.0 mi Calm Calm - N/A   Unknown
2:35 AM 32.4 °F - 32.2 °F 99% 30.23 in 7.0 mi Calm Calm - N/A   Unknown
2:55 AM 32.0 °F - 32.0 °F 100% 30.23 in 5.0 mi Calm Calm - N/A   Mist
3:15 AM 32.0 °F - 32.0 °F 100% 30.24 in 5.0 mi Calm Calm - N/A   Mist
3:35 AM 32.0 °F - 32.0 °F 100% 30.24 in 5.0 mi Calm Calm - N/A   Mist
3:55 AM 31.3 °F - 31.3 °F 100% 30.24 in 5.0 mi Calm Calm - N/A   Mist
4:15 AM 31.5 °F - 31.5 °F 100% 30.24 in 5.0 mi Calm Calm - N/A   Mist
4:35 AM 31.1 °F - 31.1 °F 100% 30.25 in 3.0 mi Calm Calm - N/A   Mist
4:55 AM 30.7 °F - 30.7 °F 100% 30.26 in 4.0 mi Calm Calm - N/A   Mist
5:15 AM 30.6 °F - 30.6 °F 100% 30.26 in 0.5 mi Calm Calm - N/A Fog Light Freezing Fog
5:35 AM 31.1 °F - 31.1 °F 100% 30.26 in 0.2 mi Calm Calm - N/A Fog Light Freezing Fog
5:55 AM 30.9 °F - 30.9 °F 100% 30.26 in 0.5 mi Calm Calm - N/A Fog Light Freezing Fog
6:50 AM 28.4 °F - 28.4 °F 100% 30.27 in 0.2 mi Calm Calm - N/A Fog Fog
7:50 AM 32.0 °F - 32.0 °F 100% 30.30 in 5.0 mi Calm Calm - N/A   Clear
8:50 AM 41.0 °F 37.1 °F 41.0 °F 100% 30.31 in 10.0 mi SSE 5.8 mph - N/A   Clear
9:50 AM 48.2 °F - 37.4 °F 66% 30.31 in 10.0 mi South 8.1 mph - N/A   Clear
10:50 AM 53.6 °F - 32.0 °F 44% 30.30 in 10.0 mi South 11.5 mph - N/A   Clear
11:50 AM 55.4 °F - 28.4 °F 36% 30.27 in 10.0 mi South 9.2 mph - N/A   Clear
12:50 PM 55.4 °F - 28.4 °F 36% 30.24 in 10.0 mi South 12.7 mph - N/A   Clear
1:50 PM 57.2 °F - 26.6 °F 31% 30.21 in 10.0 mi South 13.8 mph - N/A   Partly Cloudy
2:50 PM 57.2 °F - 28.4 °F 33% 30.19 in 10.0 mi SSE 13.8 mph - N/A   Partly Cloudy
3:50 PM 53.6 °F - 28.4 °F 38% 30.18 in 10.0 mi South 13.8 mph - N/A   Scattered Clouds
4:50 PM 50.0 °F - 30.2 °F 47% 30.17 in 10.0 mi SSE 11.5 mph - N/A   Scattered Clouds
5:50 PM 44.6 °F 39.7 °F 30.2 °F 57% 30.19 in 10.0 mi South 9.2 mph - N/A   Scattered Clouds
6:50 PM 46.4 °F 41.9 °F 32.0 °F 57% 30.19 in 10.0 mi SSE 9.2 mph - N/A   Mostly Cloudy
7:50 PM 46.4 °F 41.1 °F 32.0 °F 57% 30.19 in 10.0 mi South 11.5 mph - N/A   Scattered Clouds
8:50 PM 46.4 °F 41.1 °F 32.0 °F 57% 30.19 in 10.0 mi South 11.5 mph - N/A   Scattered Clouds
9:15 PM 46.4 °F 41.1 °F 32.4 °F 58% 30.19 in 10.0 mi SE 11.5 mph - N/A   Clear
9:35 PM 46.9 °F - 32.5 °F 57% 30.18 in 10.0 mi ESE 11.5 mph - N/A   Clear
9:50 PM 46.4 °F 41.1 °F 32.0 °F 57% 30.19 in 10.0 mi SSE 11.5 mph - N/A   Scattered Clouds
9:55 PM 46.8 °F - 32.7 °F 58% 30.19 in 10.0 mi SE 10.4 mph - N/A   Clear
10:15 PM 46.8 °F - 32.7 °F 58% 30.17 in 10.0 mi ESE 11.5 mph - N/A   Clear
10:35 PM 46.8 °F - 32.9 °F 59% 30.18 in 10.0 mi ESE 10.4 mph - N/A   Clear
10:55 PM 46.8 °F - 33.3 °F 59% 30.18 in 10.0 mi ESE 9.2 mph - N/A   Clear